User: anonymous   Login
Location: Unspecified
(0.0000°N, 0.0000°E)
Time: 20:06:34
(UTC+00:00)
Language:

STARLINK-35293 - Orbit

View from above orbital plane
View from above orbital plane
View from above satellite
View from above satellite

Ground track
Ground track

The orbit is defined by the following mean orbital elements,

1 66012U          26145.19811838 +.00000000 +00000-0 +64973-3 0 00007
2 66012  53.1569 108.2288 0001345  90.3660 269.7494 15.30208495    00
Epoch (UTC): 25 May 2026 04:45:17
Eccentricity: 0.0001345
inclination: 53.1569°
perigee height: 474 km
apogee height: 476 km
right ascension of ascending node: 108.2288°
argument of perigee: 90.3660°
revolutions per day: 15.30208495
mean anomaly at epoch: 269.7494°

The dashed part of the orbit path shows where the satellite is in the earth's shadow,  

DLR